owner,sensor,date,latitude,longitude,air_temperature,qcFlag 
COMPS,ioos:station:USF.COMPS:SHP:1,2008-11-01T00:00:00Z,30.0600,-84.2910,17.09,1111122 
COMPS,ioos:station:USF.COMPS:SHP:1,2008-11-01T00:06:00Z,30.0600,-84.2910,16.8,1111122 
COMPS,ioos:station:USF.COMPS:SHP:1,2008-11-01T00:12:00Z,30.0600,-84.2910,16.69,1111122 
COMPS,ioos:station:USF.COMPS:SHP:1,2008-11-01T00:18:00Z,30.0600,-84.2910,16.65,1111122 
COMPS,ioos:station:USF.COMPS:SHP:1,2008-11-01T00:24:00Z,30.0600,-84.2910,16.65,1111122 
COMPS,ioos:station:USF.COMPS:SHP:1,2008-11-01T00:30:00Z,30.0600,-84.2910,16.37,1111122 
COMPS,ioos:station:USF.COMPS:SHP:1,2008-11-01T00:36:00Z,30.0600,-84.2910,16.43,1111122 
COMPS,ioos:station:USF.COMPS:SHP:1,2008-11-01T00:42:00Z,30.0600,-84.2910,16.53,1111122 
COMPS,ioos:station:USF.COMPS:SHP:1,2008-11-01T00:48:00Z,30.0600,-84.2910,16.58,1111122 
COMPS,ioos:station:USF.COMPS:SHP:1,2008-11-01T00:54:00Z,30.0600,-84.2910,16.2,1111122 
COMPS,ioos:station:USF.COMPS:SHP:1,2008-11-01T01:00:00Z,30.0600,-84.2910,16.1,1111122 
COMPS,ioos:station:USF.COMPS:SHP:1,2008-11-01T01:06:00Z,30.0600,-84.2910,16.1,1111122 
COMPS,ioos:station:USF.COMPS:SHP:1,2008-11-01T01:12:00Z,30.0600,-84.2910,16.13,1111122 
COMPS,ioos:station:USF.COMPS:SHP:1,2008-11-01T01:18:00Z,30.0600,-84.2910,15.95,1111122 
COMPS,ioos:station:USF.COMPS:SHP:1,2008-11-01T01:24:00Z,30.0600,-84.2910,15.9,1111122 
COMPS,ioos:station:USF.COMPS:SHP:1,2008-11-01T01:30:00Z,30.0600,-84.2910,15.94,1111122 
COMPS,ioos:station:USF.COMPS:SHP:1,2008-11-01T01:36:00Z,30.0600,-84.2910,15.91,1111122 
COMPS,ioos:station:USF.COMPS:SHP:1,2008-11-01T01:42:00Z,30.0600,-84.2910,15.79,1111122 
COMPS,ioos:station:USF.COMPS:SHP:1,2008-11-01T01:48:00Z,30.0600,-84.2910,15.61,1111122 
COMPS,ioos:station:USF.COMPS:SHP:1,2008-11-01T01:54:00Z,30.0600,-84.2910,15.47,1111122 
COMPS,ioos:station:USF.COMPS:SHP:1,2008-11-01T02:00:00Z,30.0600,-84.2910,15.51,1111122 
COMPS,ioos:station:USF.COMPS:SHP:1,2008-11-01T02:06:00Z,30.0600,-84.2910,15.52,1111122 
COMPS,ioos:station:USF.COMPS:SHP:1,2008-11-01T02:12:00Z,30.0600,-84.2910,15.44,1111122 
COMPS,ioos:station:USF.COMPS:SHP:1,2008-11-01T02:18:00Z,30.0600,-84.2910,15.36,1111122 
COMPS,ioos:station:USF.COMPS:SHP:1,2008-11-01T02:24:00Z,30.0600,-84.2910,15.53,1111122 
COMPS,ioos:station:USF.COMPS:SHP:1,2008-11-01T02:30:00Z,30.0600,-84.2910,16.0,1111122 
COMPS,ioos:station:USF.COMPS:SHP:1,2008-11-01T02:36:00Z,30.0600,-84.2910,15.91,1111122 
COMPS,ioos:station:USF.COMPS:SHP:1,2008-11-01T02:42:00Z,30.0600,-84.2910,15.82,1111122 
COMPS,ioos:station:USF.COMPS:SHP:1,2008-11-01T02:48:00Z,30.0600,-84.2910,15.67,1111122 
COMPS,ioos:station:USF.COMPS:SHP:1,2008-11-01T02:54:00Z,30.0600,-84.2910,15.57,1111122 
COMPS,ioos:station:USF.COMPS:SHP:1,2008-11-01T03:00:00Z,30.0600,-84.2910,15.24,1111122 
COMPS,ioos:station:USF.COMPS:SHP:1,2008-11-01T03:06:00Z,30.0600,-84.2910,15.07,1111122 
COMPS,ioos:station:USF.COMPS:SHP:1,2008-11-01T03:12:00Z,30.0600,-84.2910,15.02,1111122 
COMPS,ioos:station:USF.COMPS:SHP:1,2008-11-01T03:18:00Z,30.0600,-84.2910,15.03,1111122 
COMPS,ioos:station:USF.COMPS:SHP:1,2008-11-01T03:24:00Z,30.0600,-84.2910,14.78,1111122 
COMPS,ioos:station:USF.COMPS:SHP:1,2008-11-01T03:30:00Z,30.0600,-84.2910,14.74,1111122 
COMPS,ioos:station:USF.COMPS:SHP:1,2008-11-01T03:36:00Z,30.0600,-84.2910,14.63,1111122 
COMPS,ioos:station:USF.COMPS:SHP:1,2008-11-01T03:42:00Z,30.0600,-84.2910,14.69,1111122 
COMPS,ioos:station:USF.COMPS:SHP:1,2008-11-01T03:48:00Z,30.0600,-84.2910,14.56,1111122 
COMPS,ioos:station:USF.COMPS:SHP:1,2008-11-01T03:54:00Z,30.0600,-84.2910,14.48,1111122 
COMPS,ioos:station:USF.COMPS:SHP:1,2008-11-01T04:00:00Z,30.0600,-84.2910,14.46,1111122 
COMPS,ioos:station:USF.COMPS:SHP:1,2008-11-01T04:06:00Z,30.0600,-84.2910,14.5,1111122 
COMPS,ioos:station:USF.COMPS:SHP:1,2008-11-01T04:12:00Z,30.0600,-84.2910,14.41,1111122 
COMPS,ioos:station:USF.COMPS:SHP:1,2008-11-01T04:18:00Z,30.0600,-84.2910,14.24,1111122 
COMPS,ioos:station:USF.COMPS:SHP:1,2008-11-01T04:24:00Z,30.0600,-84.2910,14.07,1111122 
COMPS,ioos:station:USF.COMPS:SHP:1,2008-11-01T04:30:00Z,30.0600,-84.2910,14.04,1111122 
COMPS,ioos:station:USF.COMPS:SHP:1,2008-11-01T04:36:00Z,30.0600,-84.2910,13.94,1111122 
COMPS,ioos:station:USF.COMPS:SHP:1,2008-11-01T04:42:00Z,30.0600,-84.2910,13.86,1111122 
COMPS,ioos:station:USF.COMPS:SHP:1,2008-11-01T04:48:00Z,30.0600,-84.2910,13.84,1111122 
COMPS,ioos:station:USF.COMPS:SHP:1,2008-11-01T04:54:00Z,30.0600,-84.2910,13.82,1111122 
COMPS,ioos:station:USF.COMPS:SHP:1,2008-11-01T05:00:00Z,30.0600,-84.2910,13.75,1111122 
COMPS,ioos:station:USF.COMPS:SHP:1,2008-11-01T05:06:00Z,30.0600,-84.2910,13.57,1111122 
COMPS,ioos:station:USF.COMPS:SHP:1,2008-11-01T05:12:00Z,30.0600,-84.2910,13.47,1111122 
COMPS,ioos:station:USF.COMPS:SHP:1,2008-11-01T05:18:00Z,30.0600,-84.2910,13.44,1111122 
COMPS,ioos:station:USF.COMPS:SHP:1,2008-11-01T05:24:00Z,30.0600,-84.2910,13.36,1111122 
COMPS,ioos:station:USF.COMPS:SHP:1,2008-11-01T05:30:00Z,30.0600,-84.2910,13.16,1111122 
COMPS,ioos:station:USF.COMPS:SHP:1,2008-11-01T05:36:00Z,30.0600,-84.2910,13.05,1111122 
COMPS,ioos:station:USF.COMPS:SHP:1,2008-11-01T05:42:00Z,30.0600,-84.2910,13.04,1111122 
COMPS,ioos:station:USF.COMPS:SHP:1,2008-11-01T05:48:00Z,30.0600,-84.2910,13.02,1111122 
COMPS,ioos:station:USF.COMPS:SHP:1,2008-11-01T05:54:00Z,30.0600,-84.2910,12.86,1111122 
COMPS,ioos:station:USF.COMPS:SHP:1,2008-11-01T06:00:00Z,30.0600,-84.2910,12.89,1111122 
COMPS,ioos:station:USF.COMPS:SHP:1,2008-11-01T06:06:00Z,30.0600,-84.2910,12.89,1111122 
COMPS,ioos:station:USF.COMPS:SHP:1,2008-11-01T06:12:00Z,30.0600,-84.2910,12.99,1111122 
COMPS,ioos:station:USF.COMPS:SHP:1,2008-11-01T06:18:00Z,30.0600,-84.2910,12.89,1111122 
COMPS,ioos:station:USF.COMPS:SHP:1,2008-11-01T06:24:00Z,30.0600,-84.2910,12.88,1111122 
COMPS,ioos:station:USF.COMPS:SHP:1,2008-11-01T06:30:00Z,30.0600,-84.2910,12.73,1111122 
COMPS,ioos:station:USF.COMPS:SHP:1,2008-11-01T06:36:00Z,30.0600,-84.2910,12.72,1111122 
COMPS,ioos:station:USF.COMPS:SHP:1,2008-11-01T06:42:00Z,30.0600,-84.2910,12.69,1111122 
COMPS,ioos:station:USF.COMPS:SHP:1,2008-11-01T06:48:00Z,30.0600,-84.2910,12.62,1111122 
COMPS,ioos:station:USF.COMPS:SHP:1,2008-11-01T06:54:00Z,30.0600,-84.2910,12.5,1111122 
COMPS,ioos:station:USF.COMPS:SHP:1,2008-11-01T07:00:00Z,30.0600,-84.2910,12.0,1111122 
COMPS,ioos:station:USF.COMPS:SHP:1,2008-11-01T07:06:00Z,30.0600,-84.2910,11.61,1111122 
COMPS,ioos:station:USF.COMPS:SHP:1,2008-11-01T07:12:00Z,30.0600,-84.2910,11.16,1111122 
COMPS,ioos:station:USF.COMPS:SHP:1,2008-11-01T07:18:00Z,30.0600,-84.2910,10.93,1111122 
COMPS,ioos:station:USF.COMPS:SHP:1,2008-11-01T07:24:00Z,30.0600,-84.2910,10.89,1111122 
COMPS,ioos:station:USF.COMPS:SHP:1,2008-11-01T07:30:00Z,30.0600,-84.2910,10.9,1111122 
COMPS,ioos:station:USF.COMPS:SHP:1,2008-11-01T07:36:00Z,30.0600,-84.2910,10.86,1111122 
COMPS,ioos:station:USF.COMPS:SHP:1,2008-11-01T07:42:00Z,30.0600,-84.2910,10.83,1111122 
COMPS,ioos:station:USF.COMPS:SHP:1,2008-11-01T07:48:00Z,30.0600,-84.2910,10.66,1111122 
COMPS,ioos:station:USF.COMPS:SHP:1,2008-11-01T07:54:00Z,30.0600,-84.2910,10.66,1111122 
COMPS,ioos:station:USF.COMPS:SHP:1,2008-11-01T08:00:00Z,30.0600,-84.2910,10.54,1111122 
COMPS,ioos:station:USF.COMPS:SHP:1,2008-11-01T08:06:00Z,30.0600,-84.2910,10.48,1111122 
COMPS,ioos:station:USF.COMPS:SHP:1,2008-11-01T08:12:00Z,30.0600,-84.2910,10.48,1111122 
COMPS,ioos:station:USF.COMPS:SHP:1,2008-11-01T08:18:00Z,30.0600,-84.2910,10.56,1111122 
COMPS,ioos:station:USF.COMPS:SHP:1,2008-11-01T08:24:00Z,30.0600,-84.2910,10.27,1111122 
COMPS,ioos:station:USF.COMPS:SHP:1,2008-11-01T08:30:00Z,30.0600,-84.2910,10.29,1111122 
COMPS,ioos:station:USF.COMPS:SHP:1,2008-11-01T08:36:00Z,30.0600,-84.2910,10.29,1111122 
COMPS,ioos:station:USF.COMPS:SHP:1,2008-11-01T08:42:00Z,30.0600,-84.2910,10.45,1111122 
COMPS,ioos:station:USF.COMPS:SHP:1,2008-11-01T08:48:00Z,30.0600,-84.2910,10.25,1111122 
COMPS,ioos:station:USF.COMPS:SHP:1,2008-11-01T08:54:00Z,30.0600,-84.2910,10.08,1111122 
COMPS,ioos:station:USF.COMPS:SHP:1,2008-11-01T09:00:00Z,30.0600,-84.2910,10.02,1111122 
COMPS,ioos:station:USF.COMPS:SHP:1,2008-11-01T09:06:00Z,30.0600,-84.2910,10.04,1111122 
COMPS,ioos:station:USF.COMPS:SHP:1,2008-11-01T09:12:00Z,30.0600,-84.2910,10.0,1111122 
COMPS,ioos:station:USF.COMPS:SHP:1,2008-11-01T09:18:00Z,30.0600,-84.2910,10.04,1111122 
COMPS,ioos:station:USF.COMPS:SHP:1,2008-11-01T09:24:00Z,30.0600,-84.2910,10.05,1111122 
COMPS,ioos:station:USF.COMPS:SHP:1,2008-11-01T09:30:00Z,30.0600,-84.2910,10.14,1111122 
COMPS,ioos:station:USF.COMPS:SHP:1,2008-11-01T09:36:00Z,30.0600,-84.2910,10.18,1111122 
COMPS,ioos:station:USF.COMPS:SHP:1,2008-11-01T09:42:00Z,30.0600,-84.2910,10.14,1111122 
COMPS,ioos:station:USF.COMPS:SHP:1,2008-11-01T09:48:00Z,30.0600,-84.2910,9.98,1111122 
COMPS,ioos:station:USF.COMPS:SHP:1,2008-11-01T09:54:00Z,30.0600,-84.2910,10.03,1111122 
COMPS,ioos:station:USF.COMPS:SHP:1,2008-11-01T10:00:00Z,30.0600,-84.2910,10.12,1111122 
COMPS,ioos:station:USF.COMPS:SHP:1,2008-11-01T10:06:00Z,30.0600,-84.2910,10.07,1111122 
COMPS,ioos:station:USF.COMPS:SHP:1,2008-11-01T10:12:00Z,30.0600,-84.2910,10.17,1111122 
COMPS,ioos:station:USF.COMPS:SHP:1,2008-11-01T10:18:00Z,30.0600,-84.2910,10.26,1111122 
COMPS,ioos:station:USF.COMPS:SHP:1,2008-11-01T10:24:00Z,30.0600,-84.2910,10.21,1111122 
COMPS,ioos:station:USF.COMPS:SHP:1,2008-11-01T10:30:00Z,30.0600,-84.2910,9.95,1111122 
COMPS,ioos:station:USF.COMPS:SHP:1,2008-11-01T10:36:00Z,30.0600,-84.2910,9.96,1111122 
COMPS,ioos:station:USF.COMPS:SHP:1,2008-11-01T10:42:00Z,30.0600,-84.2910,10.08,1111122 
COMPS,ioos:station:USF.COMPS:SHP:1,2008-11-01T10:48:00Z,30.0600,-84.2910,10.05,1111122 
COMPS,ioos:station:USF.COMPS:SHP:1,2008-11-01T10:54:00Z,30.0600,-84.2910,9.94,1111122 
COMPS,ioos:station:USF.COMPS:SHP:1,2008-11-01T11:00:00Z,30.0600,-84.2910,10.05,1111122 
COMPS,ioos:station:USF.COMPS:SHP:1,2008-11-01T11:06:00Z,30.0600,-84.2910,10.13,1111122 
COMPS,ioos:station:USF.COMPS:SHP:1,2008-11-01T11:12:00Z,30.0600,-84.2910,10.33,1111122 
COMPS,ioos:station:USF.COMPS:SHP:1,2008-11-01T11:18:00Z,30.0600,-84.2910,10.19,1111122 
COMPS,ioos:station:USF.COMPS:SHP:1,2008-11-01T11:24:00Z,30.0600,-84.2910,10.18,1111122 
COMPS,ioos:station:USF.COMPS:SHP:1,2008-11-01T11:30:00Z,30.0600,-84.2910,10.2,1111122 
COMPS,ioos:station:USF.COMPS:SHP:1,2008-11-01T11:36:00Z,30.0600,-84.2910,10.31,1111122 
COMPS,ioos:station:USF.COMPS:SHP:1,2008-11-01T11:42:00Z,30.0600,-84.2910,10.22,1111122 
COMPS,ioos:station:USF.COMPS:SHP:1,2008-11-01T11:48:00Z,30.0600,-84.2910,10.06,1111122 
COMPS,ioos:station:USF.COMPS:SHP:1,2008-11-01T11:54:00Z,30.0600,-84.2910,10.06,1111122 
COMPS,ioos:station:USF.COMPS:SHP:1,2008-11-01T12:00:00Z,30.0600,-84.2910,10.15,1111122 
COMPS,ioos:station:USF.COMPS:SHP:1,2008-11-01T12:06:00Z,30.0600,-84.2910,10.21,1111122 
COMPS,ioos:station:USF.COMPS:SHP:1,2008-11-01T12:12:00Z,30.0600,-84.2910,10.29,1111122 
COMPS,ioos:station:USF.COMPS:SHP:1,2008-11-01T12:18:00Z,30.0600,-84.2910,10.52,1111122 
COMPS,ioos:station:USF.COMPS:SHP:1,2008-11-01T12:24:00Z,30.0600,-84.2910,10.91,1111122 
COMPS,ioos:station:USF.COMPS:SHP:1,2008-11-01T12:30:00Z,30.0600,-84.2910,11.41,1111122 
COMPS,ioos:station:USF.COMPS:SHP:1,2008-11-01T12:36:00Z,30.0600,-84.2910,11.74,1111122 
COMPS,ioos:station:USF.COMPS:SHP:1,2008-11-01T12:42:00Z,30.0600,-84.2910,12.0,1111122 
COMPS,ioos:station:USF.COMPS:SHP:1,2008-11-01T12:48:00Z,30.0600,-84.2910,12.11,1111122 
COMPS,ioos:station:USF.COMPS:SHP:1,2008-11-01T12:54:00Z,30.0600,-84.2910,12.2,1111122 
COMPS,ioos:station:USF.COMPS:SHP:1,2008-11-01T13:00:00Z,30.0600,-84.2910,12.07,1111122 
COMPS,ioos:station:USF.COMPS:SHP:1,2008-11-01T13:06:00Z,30.0600,-84.2910,12.24,1111122 
COMPS,ioos:station:USF.COMPS:SHP:1,2008-11-01T13:12:00Z,30.0600,-84.2910,12.45,1111122 
COMPS,ioos:station:USF.COMPS:SHP:1,2008-11-01T13:18:00Z,30.0600,-84.2910,12.7,1111122 
COMPS,ioos:station:USF.COMPS:SHP:1,2008-11-01T13:24:00Z,30.0600,-84.2910,12.69,1111122 
COMPS,ioos:station:USF.COMPS:SHP:1,2008-11-01T13:30:00Z,30.0600,-84.2910,12.98,1111122 
COMPS,ioos:station:USF.COMPS:SHP:1,2008-11-01T13:36:00Z,30.0600,-84.2910,13.33,1111122 
COMPS,ioos:station:USF.COMPS:SHP:1,2008-11-01T13:42:00Z,30.0600,-84.2910,13.74,1111122 
COMPS,ioos:station:USF.COMPS:SHP:1,2008-11-01T13:48:00Z,30.0600,-84.2910,13.91,1111122 
COMPS,ioos:station:USF.COMPS:SHP:1,2008-11-01T13:54:00Z,30.0600,-84.2910,14.21,1111122 
COMPS,ioos:station:USF.COMPS:SHP:1,2008-11-01T14:00:00Z,30.0600,-84.2910,14.48,1111122 
COMPS,ioos:station:USF.COMPS:SHP:1,2008-11-01T14:06:00Z,30.0600,-84.2910,14.85,1111122 
COMPS,ioos:station:USF.COMPS:SHP:1,2008-11-01T14:12:00Z,30.0600,-84.2910,15.01,1111122 
COMPS,ioos:station:USF.COMPS:SHP:1,2008-11-01T14:18:00Z,30.0600,-84.2910,15.28,1111122 
COMPS,ioos:station:USF.COMPS:SHP:1,2008-11-01T14:24:00Z,30.0600,-84.2910,15.36,1111122 
COMPS,ioos:station:USF.COMPS:SHP:1,2008-11-01T14:30:00Z,30.0600,-84.2910,15.87,1111122 
COMPS,ioos:station:USF.COMPS:SHP:1,2008-11-01T14:36:00Z,30.0600,-84.2910,16.03,1111122 
COMPS,ioos:station:USF.COMPS:SHP:1,2008-11-01T14:42:00Z,30.0600,-84.2910,16.27,1111122 
COMPS,ioos:station:USF.COMPS:SHP:1,2008-11-01T14:48:00Z,30.0600,-84.2910,16.68,1111122 
COMPS,ioos:station:USF.COMPS:SHP:1,2008-11-01T14:54:00Z,30.0600,-84.2910,17.12,1111122 
COMPS,ioos:station:USF.COMPS:SHP:1,2008-11-01T15:00:00Z,30.0600,-84.2910,17.24,1111122 
COMPS,ioos:station:USF.COMPS:SHP:1,2008-11-01T15:06:00Z,30.0600,-84.2910,17.45,1111122 
COMPS,ioos:station:USF.COMPS:SHP:1,2008-11-01T15:12:00Z,30.0600,-84.2910,17.76,1111122 
COMPS,ioos:station:USF.COMPS:SHP:1,2008-11-01T15:18:00Z,30.0600,-84.2910,17.67,1111122 
COMPS,ioos:station:USF.COMPS:SHP:1,2008-11-01T15:24:00Z,30.0600,-84.2910,18.27,1111122 
COMPS,ioos:station:USF.COMPS:SHP:1,2008-11-01T15:30:00Z,30.0600,-84.2910,18.24,1111122 
COMPS,ioos:station:USF.COMPS:SHP:1,2008-11-01T15:36:00Z,30.0600,-84.2910,18.54,1111122 
COMPS,ioos:station:USF.COMPS:SHP:1,2008-11-01T15:42:00Z,30.0600,-84.2910,18.59,1111122 
COMPS,ioos:station:USF.COMPS:SHP:1,2008-11-01T15:48:00Z,30.0600,-84.2910,18.75,1111122 
COMPS,ioos:station:USF.COMPS:SHP:1,2008-11-01T15:54:00Z,30.0600,-84.2910,19.07,1111122 
COMPS,ioos:station:USF.COMPS:SHP:1,2008-11-01T16:00:00Z,30.0600,-84.2910,19.32,1111122 
COMPS,ioos:station:USF.COMPS:SHP:1,2008-11-01T16:06:00Z,30.0600,-84.2910,19.17,1111122 
COMPS,ioos:station:USF.COMPS:SHP:1,2008-11-01T16:12:00Z,30.0600,-84.2910,19.41,1111122 
COMPS,ioos:station:USF.COMPS:SHP:1,2008-11-01T16:18:00Z,30.0600,-84.2910,19.3,1111122 
COMPS,ioos:station:USF.COMPS:SHP:1,2008-11-01T16:24:00Z,30.0600,-84.2910,19.31,1111122 
COMPS,ioos:station:USF.COMPS:SHP:1,2008-11-01T16:30:00Z,30.0600,-84.2910,19.64,1111122 
COMPS,ioos:station:USF.COMPS:SHP:1,2008-11-01T16:36:00Z,30.0600,-84.2910,20.08,1111122 
COMPS,ioos:station:USF.COMPS:SHP:1,2008-11-01T16:42:00Z,30.0600,-84.2910,20.21,1111122 
COMPS,ioos:station:USF.COMPS:SHP:1,2008-11-01T16:48:00Z,30.0600,-84.2910,20.56,1111122 
COMPS,ioos:station:USF.COMPS:SHP:1,2008-11-01T16:54:00Z,30.0600,-84.2910,21.02,1111122 
COMPS,ioos:station:USF.COMPS:SHP:1,2008-11-01T17:00:00Z,30.0600,-84.2910,21.42,1111122 
COMPS,ioos:station:USF.COMPS:SHP:1,2008-11-01T17:06:00Z,30.0600,-84.2910,20.77,1111122 
COMPS,ioos:station:USF.COMPS:SHP:1,2008-11-01T17:12:00Z,30.0600,-84.2910,21.32,1111122 
COMPS,ioos:station:USF.COMPS:SHP:1,2008-11-01T17:18:00Z,30.0600,-84.2910,21.56,1111122 
COMPS,ioos:station:USF.COMPS:SHP:1,2008-11-01T17:24:00Z,30.0600,-84.2910,21.65,1111122 
COMPS,ioos:station:USF.COMPS:SHP:1,2008-11-01T17:30:00Z,30.0600,-84.2910,21.57,1111122 
COMPS,ioos:station:USF.COMPS:SHP:1,2008-11-01T17:36:00Z,30.0600,-84.2910,21.54,1111122 
COMPS,ioos:station:USF.COMPS:SHP:1,2008-11-01T17:42:00Z,30.0600,-84.2910,22.17,1111122 
COMPS,ioos:station:USF.COMPS:SHP:1,2008-11-01T17:48:00Z,30.0600,-84.2910,21.91,1111122 
COMPS,ioos:station:USF.COMPS:SHP:1,2008-11-01T17:54:00Z,30.0600,-84.2910,22.46,1111122 
COMPS,ioos:station:USF.COMPS:SHP:1,2008-11-01T18:00:00Z,30.0600,-84.2910,22.64,1111122 
COMPS,ioos:station:USF.COMPS:SHP:1,2008-11-01T18:06:00Z,30.0600,-84.2910,22.51,1111122 
COMPS,ioos:station:USF.COMPS:SHP:1,2008-11-01T18:12:00Z,30.0600,-84.2910,22.77,1111122 
COMPS,ioos:station:USF.COMPS:SHP:1,2008-11-01T18:18:00Z,30.0600,-84.2910,22.85,1111122 
COMPS,ioos:station:USF.COMPS:SHP:1,2008-11-01T18:24:00Z,30.0600,-84.2910,22.54,1111122 
COMPS,ioos:station:USF.COMPS:SHP:1,2008-11-01T18:30:00Z,30.0600,-84.2910,22.47,1111122 
COMPS,ioos:station:USF.COMPS:SHP:1,2008-11-01T18:36:00Z,30.0600,-84.2910,22.44,1111122 
COMPS,ioos:station:USF.COMPS:SHP:1,2008-11-01T18:42:00Z,30.0600,-84.2910,22.56,1111122 
COMPS,ioos:station:USF.COMPS:SHP:1,2008-11-01T18:48:00Z,30.0600,-84.2910,22.11,1111122 
COMPS,ioos:station:USF.COMPS:SHP:1,2008-11-01T18:54:00Z,30.0600,-84.2910,22.32,1111122 
COMPS,ioos:station:USF.COMPS:SHP:1,2008-11-01T19:00:00Z,30.0600,-84.2910,22.35,1111122 
COMPS,ioos:station:USF.COMPS:SHP:1,2008-11-01T19:06:00Z,30.0600,-84.2910,22.35,1111122 
COMPS,ioos:station:USF.COMPS:SHP:1,2008-11-01T19:12:00Z,30.0600,-84.2910,22.22,1111122 
COMPS,ioos:station:USF.COMPS:SHP:1,2008-11-01T19:18:00Z,30.0600,-84.2910,21.44,1111122 
COMPS,ioos:station:USF.COMPS:SHP:1,2008-11-01T19:24:00Z,30.0600,-84.2910,20.24,1111122 
COMPS,ioos:station:USF.COMPS:SHP:1,2008-11-01T19:30:00Z,30.0600,-84.2910,20.8,1111122 
COMPS,ioos:station:USF.COMPS:SHP:1,2008-11-01T19:36:00Z,30.0600,-84.2910,20.28,1111122 
COMPS,ioos:station:USF.COMPS:SHP:1,2008-11-01T19:42:00Z,30.0600,-84.2910,20.11,1111122 
COMPS,ioos:station:USF.COMPS:SHP:1,2008-11-01T19:48:00Z,30.0600,-84.2910,20.03,1111122 
COMPS,ioos:station:USF.COMPS:SHP:1,2008-11-01T19:54:00Z,30.0600,-84.2910,20.16,1111122 
COMPS,ioos:station:USF.COMPS:SHP:1,2008-11-01T20:00:00Z,30.0600,-84.2910,20.25,1111122 
COMPS,ioos:station:USF.COMPS:SHP:1,2008-11-01T20:06:00Z,30.0600,-84.2910,21.01,1111122 
COMPS,ioos:station:USF.COMPS:SHP:1,2008-11-01T20:12:00Z,30.0600,-84.2910,21.66,1111122 
COMPS,ioos:station:USF.COMPS:SHP:1,2008-11-01T20:18:00Z,30.0600,-84.2910,21.67,1111122 
COMPS,ioos:station:USF.COMPS:SHP:1,2008-11-01T20:24:00Z,30.0600,-84.2910,21.57,1111122 
COMPS,ioos:station:USF.COMPS:SHP:1,2008-11-01T20:30:00Z,30.0600,-84.2910,21.41,1111122 
COMPS,ioos:station:USF.COMPS:SHP:1,2008-11-01T20:36:00Z,30.0600,-84.2910,21.45,1111122 
COMPS,ioos:station:USF.COMPS:SHP:1,2008-11-01T20:42:00Z,30.0600,-84.2910,21.19,1111122 
COMPS,ioos:station:USF.COMPS:SHP:1,2008-11-01T20:48:00Z,30.0600,-84.2910,21.0,1111122 
COMPS,ioos:station:USF.COMPS:SHP:1,2008-11-01T20:54:00Z,30.0600,-84.2910,21.1,1111122 
COMPS,ioos:station:USF.COMPS:SHP:1,2008-11-01T21:00:00Z,30.0600,-84.2910,20.85,1111122 
COMPS,ioos:station:USF.COMPS:SHP:1,2008-11-01T21:06:00Z,30.0600,-84.2910,21.19,1111122 
COMPS,ioos:station:USF.COMPS:SHP:1,2008-11-01T21:12:00Z,30.0600,-84.2910,21.69,1111122 
COMPS,ioos:station:USF.COMPS:SHP:1,2008-11-01T21:18:00Z,30.0600,-84.2910,21.74,1111122 
COMPS,ioos:station:USF.COMPS:SHP:1,2008-11-01T21:24:00Z,30.0600,-84.2910,22.03,1111122 
COMPS,ioos:station:USF.COMPS:SHP:1,2008-11-01T21:30:00Z,30.0600,-84.2910,22.4,1111122 
COMPS,ioos:station:USF.COMPS:SHP:1,2008-11-01T21:36:00Z,30.0600,-84.2910,22.98,1111122 
COMPS,ioos:station:USF.COMPS:SHP:1,2008-11-01T21:42:00Z,30.0600,-84.2910,22.62,1111122 
COMPS,ioos:station:USF.COMPS:SHP:1,2008-11-01T21:48:00Z,30.0600,-84.2910,22.33,1111122 
COMPS,ioos:station:USF.COMPS:SHP:1,2008-11-01T21:54:00Z,30.0600,-84.2910,22.85,1111122 
COMPS,ioos:station:USF.COMPS:SHP:1,2008-11-01T22:00:00Z,30.0600,-84.2910,22.95,1111122 
COMPS,ioos:station:USF.COMPS:SHP:1,2008-11-01T22:06:00Z,30.0600,-84.2910,22.41,1111122 
COMPS,ioos:station:USF.COMPS:SHP:1,2008-11-01T22:12:00Z,30.0600,-84.2910,22.29,1111122 
COMPS,ioos:station:USF.COMPS:SHP:1,2008-11-01T22:18:00Z,30.0600,-84.2910,22.12,1111122 
COMPS,ioos:station:USF.COMPS:SHP:1,2008-11-01T22:24:00Z,30.0600,-84.2910,22.08,1111122 
COMPS,ioos:station:USF.COMPS:SHP:1,2008-11-01T22:30:00Z,30.0600,-84.2910,21.78,1111122 
COMPS,ioos:station:USF.COMPS:SHP:1,2008-11-01T22:36:00Z,30.0600,-84.2910,21.52,1111122 
COMPS,ioos:station:USF.COMPS:SHP:1,2008-11-01T22:42:00Z,30.0600,-84.2910,21.24,1111122 
COMPS,ioos:station:USF.COMPS:SHP:1,2008-11-01T22:48:00Z,30.0600,-84.2910,20.92,1111122 
COMPS,ioos:station:USF.COMPS:SHP:1,2008-11-01T22:54:00Z,30.0600,-84.2910,20.51,1111122 
COMPS,ioos:station:USF.COMPS:SHP:1,2008-11-01T23:00:00Z,30.0600,-84.2910,20.22,1111122 
COMPS,ioos:station:USF.COMPS:SHP:1,2008-11-01T23:06:00Z,30.0600,-84.2910,20.07,1111122 
COMPS,ioos:station:USF.COMPS:SHP:1,2008-11-01T23:12:00Z,30.0600,-84.2910,19.95,1111122 
COMPS,ioos:station:USF.COMPS:SHP:1,2008-11-01T23:18:00Z,30.0600,-84.2910,19.75,1111122 
COMPS,ioos:station:USF.COMPS:SHP:1,2008-11-01T23:24:00Z,30.0600,-84.2910,19.49,1111122 
COMPS,ioos:station:USF.COMPS:SHP:1,2008-11-01T23:30:00Z,30.0600,-84.2910,19.27,1111122 
COMPS,ioos:station:USF.COMPS:SHP:1,2008-11-01T23:36:00Z,30.0600,-84.2910,19.15,1111122 
COMPS,ioos:station:USF.COMPS:SHP:1,2008-11-01T23:42:00Z,30.0600,-84.2910,19.08,1111122 
COMPS,ioos:station:USF.COMPS:SHP:1,2008-11-01T23:48:00Z,30.0600,-84.2910,18.91,1111122 
COMPS,ioos:station:USF.COMPS:SHP:1,2008-11-01T23:54:00Z,30.0600,-84.2910,18.77,1111122 
COMPS,ioos:station:USF.COMPS:SHP:1,2008-11-02T00:00:00Z,30.0600,-84.2910,18.59,1111122 
COMPS,ioos:station:USF.COMPS:SHP:1,2008-11-02T00:06:00Z,30.0600,-84.2910,18.57,1111122 
COMPS,ioos:station:USF.COMPS:SHP:1,2008-11-02T00:12:00Z,30.0600,-84.2910,18.16,1111122 
COMPS,ioos:station:USF.COMPS:SHP:1,2008-11-02T00:18:00Z,30.0600,-84.2910,17.97,1111122 
COMPS,ioos:station:USF.COMPS:SHP:1,2008-11-02T00:24:00Z,30.0600,-84.2910,17.84,1111122 
COMPS,ioos:station:USF.COMPS:SHP:1,2008-11-02T00:30:00Z,30.0600,-84.2910,17.79,1111122 
COMPS,ioos:station:USF.COMPS:SHP:1,2008-11-02T00:36:00Z,30.0600,-84.2910,17.58,1111122 
COMPS,ioos:station:USF.COMPS:SHP:1,2008-11-02T00:42:00Z,30.0600,-84.2910,17.46,1111122 
COMPS,ioos:station:USF.COMPS:SHP:1,2008-11-02T00:48:00Z,30.0600,-84.2910,17.36,1111122 
COMPS,ioos:station:USF.COMPS:SHP:1,2008-11-02T00:54:00Z,30.0600,-84.2910,17.36,1111122 
COMPS,ioos:station:USF.COMPS:SHP:1,2008-11-02T01:00:00Z,30.0600,-84.2910,17.12,1111122 
COMPS,ioos:station:USF.COMPS:SHP:1,2008-11-02T01:06:00Z,30.0600,-84.2910,17.01,1111122 
COMPS,ioos:station:USF.COMPS:SHP:1,2008-11-02T01:12:00Z,30.0600,-84.2910,16.83,1111122 
COMPS,ioos:station:USF.COMPS:SHP:1,2008-11-02T01:18:00Z,30.0600,-84.2910,16.75,1111122 
COMPS,ioos:station:USF.COMPS:SHP:1,2008-11-02T01:24:00Z,30.0600,-84.2910,16.62,1111122 
COMPS,ioos:station:USF.COMPS:SHP:1,2008-11-02T01:30:00Z,30.0600,-84.2910,16.38,1111122 
COMPS,ioos:station:USF.COMPS:SHP:1,2008-11-02T01:36:00Z,30.0600,-84.2910,16.35,1111122 
COMPS,ioos:station:USF.COMPS:SHP:1,2008-11-02T01:42:00Z,30.0600,-84.2910,16.34,1111122 
COMPS,ioos:station:USF.COMPS:SHP:1,2008-11-02T01:48:00Z,30.0600,-84.2910,16.3,1111122 
COMPS,ioos:station:USF.COMPS:SHP:1,2008-11-02T01:54:00Z,30.0600,-84.2910,16.09,1111122 
COMPS,ioos:station:USF.COMPS:SHP:1,2008-11-02T02:00:00Z,30.0600,-84.2910,15.93,1111122 
COMPS,ioos:station:USF.COMPS:SHP:1,2008-11-02T02:06:00Z,30.0600,-84.2910,15.87,1111122 
COMPS,ioos:station:USF.COMPS:SHP:1,2008-11-02T02:12:00Z,30.0600,-84.2910,15.95,1111122 
COMPS,ioos:station:USF.COMPS:SHP:1,2008-11-02T02:18:00Z,30.0600,-84.2910,15.97,1111122 
COMPS,ioos:station:USF.COMPS:SHP:1,2008-11-02T02:24:00Z,30.0600,-84.2910,16.14,1111122 
COMPS,ioos:station:USF.COMPS:SHP:1,2008-11-02T02:30:00Z,30.0600,-84.2910,16.24,1111122 
COMPS,ioos:station:USF.COMPS:SHP:1,2008-11-02T02:36:00Z,30.0600,-84.2910,16.23,1111122 
COMPS,ioos:station:USF.COMPS:SHP:1,2008-11-02T02:42:00Z,30.0600,-84.2910,16.07,1111122 
COMPS,ioos:station:USF.COMPS:SHP:1,2008-11-02T02:48:00Z,30.0600,-84.2910,15.98,1111122 
COMPS,ioos:station:USF.COMPS:SHP:1,2008-11-02T02:54:00Z,30.0600,-84.2910,15.86,1111122 
COMPS,ioos:station:USF.COMPS:SHP:1,2008-11-02T03:00:00Z,30.0600,-84.2910,15.86,1111122 
COMPS,ioos:station:USF.COMPS:SHP:1,2008-11-02T03:06:00Z,30.0600,-84.2910,15.72,1111122 